Printer-friendly version

IAU Minor Planet Center

Minor Planet Center

(173) Ino

Orbital Elements

The following orbital elements are taken from MPC 27289:
  (173) Ino
Epoch 2003 Dec. 27.0 TT = JDT 2453000.5                 Goffin
M 260.26654              (2000.0)            P               Q
n   0.21710088     Peri.  228.17728     +0.94665387     -0.29542483
a   2.7417530      Node   148.36529     +0.31617979     +0.92867379
e   0.2083962      Incl.   14.20707     -0.06226389     +0.22425244
P   4.54           H    7.66          G   0.01           U   0
From 384 observations at 66 oppositions, 1877-1995, mean residual 0".94.
An explanation of the orbital elements is available.

These orbital elements are also available in forms suitable for loading into a number of popular planetarium-type software programs.


Ephemeris

The following ephemeris is at intervals of five days. A daily ephemeris covering the same time interval is also available.

Date    TT    R. A. (2000) Decl.     Delta      r     Elong.  Phase     V
 
2004 06 24    20 22.22   -06 22.2    1.670    2.565   144.4    13.3    11.7
2004 06 29    20 19.81   -06 37.5    1.626    2.554   149.4    11.7    11.6
2004 07 04    20 16.88   -06 57.7    1.588    2.543   154.4     9.9    11.5
2004 07 09    20 13.48   -07 23.0    1.556    2.532   159.3     8.2    11.3
2004 07 14    20 09.70   -07 53.0    1.529    2.522   163.8     6.5    11.2
2004 07 19    20 05.64   -08 27.6    1.509    2.511   167.3     5.1    11.1
2004 07 24    20 01.43   -09 06.0    1.496    2.500   168.8     4.5    11.0
2004 07 29    19 57.21   -09 47.7    1.489    2.489   167.4     5.1    11.0
2004 08 03    19 53.11   -10 31.8    1.488    2.479   163.8     6.6    11.1
2004 08 08    19 49.26   -11 17.5    1.494    2.468   159.2     8.4    11.2
2004 08 13    19 45.79   -12 04.0    1.506    2.458   154.1    10.4    11.3
2004 08 18    19 42.81   -12 50.5    1.524    2.447   148.9    12.3    11.4
2004 08 23    19 40.42   -13 36.2    1.547    2.437   143.7    14.2    11.5
2004 08 28    19 38.70   -14 20.4    1.575    2.426   138.6    16.0    11.6
2004 09 02    19 37.68   -15 02.6    1.608    2.416   133.5    17.6    11.7
2004 09 07    19 37.41   -15 42.5    1.645    2.406   128.6    19.1    11.8
2004 09 12    19 37.88   -16 19.6    1.685    2.396   123.9    20.4    11.9

Back to Bright Minor Planets

Astronomical Headlines Index


Valid HTML 4.01!